When you browse on this site, cookies collect data to enhance your experience and personalize the content and advertising you see.
Visit our Privacy Policy to learn more. By continuing to use the site, you agree to this use of cookies and data.
  • In Romania
  • List of Countries
  • For 7 days
  • Water Temperature
  • Satellite Maps
  • Weather Map
  • Weather Widgets
  • user-avatar
    Login

    Hourly Weather Acerno

    Today, 17 July, Wednesday

    Time Temperature Precipitation Wind Pressure Humidity
    00:00 +13°C° 0 mm 2 mps 672 mmHg 73%
    01:00 +13°C° 0 mm 2 mps 672 mmHg 71%
    02:00 +12°C° 0 mm 2 mps 672 mmHg 69%
    03:00 +12°C° 0 mm 2 mps 672 mmHg 67%
    04:00 +12°C° 0 mm 2 mps 671 mmHg 66%
    05:00 +14°C° 0 mm 2 mps 672 mmHg 61%
    06:00 +16°C° 0 mm 2 mps 673 mmHg 57%
    07:00 +17°C° 0 mm 2 mps 673 mmHg 53%
    08:00 +19°C° 0 mm 2 mps 674 mmHg 47%
    09:00 +21°C° 0 mm 2 mps 675 mmHg 40%
    10:00 +24°C° 0 mm 2 mps 675 mmHg 34%
    11:00 +25°C° 0 mm 2 mps 675 mmHg 31%
    12:00 +26°C° 0 mm 2 mps 675 mmHg 29%
    13:00 +27°C° 0 mm 2 mps 676 mmHg 26%
    14:00 +26°C° 0 mm 2 mps 675 mmHg 28%
    15:00 +26°C° 0 mm 2 mps 675 mmHg 29%
    16:00 +26°C° 0 mm 3 mps 675 mmHg 30%
    17:00 +23°C° 0 mm 2 mps 675 mmHg 38%
    18:00 +20°C° 0 mm 2 mps 674 mmHg 46%
    19:00 +19°C° 0 mm 1 mps 673 mmHg 55%
    20:00 +18°C° 0 mm 1 mps 673 mmHg 57%
    21:00 +16°C° 0 mm 1 mps 673 mmHg 59%
    22:00 +15°C° 0 mm 1 mps 673 mmHg 61%
    23:00 +15°C° 0 mm 1 mps 673 mmHg 62%

    Tomorrow, 18 July, Thursday

    Time Temperature Precipitation Wind Pressure Humidity
    00:00 +14°C° 0 mm 1 mps 673 mmHg 62%
    01:00 +14°C° 0 mm 1 mps 672 mmHg 63%
    02:00 +14°C° 0 mm 1 mps 672 mmHg 65%
    03:00 +14°C° 0 mm 1 mps 672 mmHg 66%
    04:00 +13°C° 0 mm 1 mps 672 mmHg 68%
    05:00 +15°C° 0 mm 1 mps 672 mmHg 65%
    06:00 +16°C° 0 mm 1 mps 673 mmHg 62%
    07:00 +19°C° 0 mm 1 mps 673 mmHg 60%
    08:00 +21°C° 0 mm 1 mps 674 mmHg 54%
    09:00 +21°C° 0 mm 2 mps 674 mmHg 48%
    10:00 +24°C° 0 mm 2 mps 675 mmHg 42%
    11:00 +24°C° 0 mm 2 mps 675 mmHg 42%
    12:00 +25°C° 0 mm 3 mps 675 mmHg 42%
    13:00 +25°C° 0 mm 3 mps 675 mmHg 41%
    14:00 +25°C° 0 mm 3 mps 675 mmHg 43%
    15:00 +24°C° 0 mm 3 mps 675 mmHg 44%
    16:00 +24°C° 0 mm 3 mps 675 mmHg 45%
    17:00 +21°C° 0 mm 2 mps 674 mmHg 52%
    18:00 +20°C° 0 mm 2 mps 674 mmHg 58%
    19:00 +19°C° 0 mm 1 mps 674 mmHg 65%
    20:00 +18°C° 0 mm 1 mps 674 mmHg 68%
    21:00 +16°C° 0 mm 1 mps 674 mmHg 72%
    22:00 +15°C° 0 mm 1 mps 674 mmHg 75%
    23:00 +15°C° 0 mm 1 mps 674 mmHg 76%

    Day after tomorrow, 19 July, Friday

    Time Temperature Precipitation Wind Pressure Humidity
    00:00 +13°C° 0 mm 0 mps 674 mmHg 76%
    01:00 +13°C° 0 mm 0 mps 674 mmHg 77%
    02:00 +13°C° 0 mm 0 mps 674 mmHg 77%
    03:00 +13°C° 0 mm 0 mps 674 mmHg 77%
    04:00 +12°C° 0 mm 0 mps 673 mmHg 77%
    05:00 +14°C° 0 mm 0 mps 674 mmHg 70%
    06:00 +16°C° 0 mm 0 mps 675 mmHg 63%
    07:00 +18°C° 0 mm 0 mps 675 mmHg 56%
    08:00 +20°C° 0 mm 0 mps 676 mmHg 49%
    09:00 +24°C° 0 mm 1 mps 677 mmHg 42%
    10:00 +26°C° 0 mm 1 mps 678 mmHg 35%
    11:00 +27°C° 0 mm 2 mps 678 mmHg 34%
    12:00 +27°C° 0 mm 2 mps 678 mmHg 34%
    13:00 +28°C° 0 mm 3 mps 678 mmHg 33%
    14:00 +27°C° 0 mm 3 mps 678 mmHg 35%
    15:00 +26°C° 0 mm 3 mps 677 mmHg 38%
    16:00 +26°C° 0 mm 3 mps 677 mmHg 41%
    17:00 +24°C° 0 mm 2 mps 677 mmHg 46%
    18:00 +22°C° 0 mm 1 mps 677 mmHg 52%
    19:00 +21°C° 0 mm 1 mps 676 mmHg 58%
    20:00 +20°C° 0 mm 1 mps 676 mmHg 60%
    21:00 +19°C° 0 mm 1 mps 676 mmHg 62%
    22:00 +18°C° 0 mm 1 mps 676 mmHg 65%
    23:00 +16°C° 0 mm 1 mps 676 mmHg 64%

    20 July, Saturday

    Time Temperature Precipitation Wind Pressure Humidity
    00:00 +16°C° 0 mm 1 mps 676 mmHg 64%
    01:00 +16°C° 0 mm 1 mps 676 mmHg 63%
    02:00 +15°C° 0 mm 0 mps 676 mmHg 64%
    03:00 +14°C° 0 mm 0 mps 675 mmHg 65%
    04:00 +14°C° 0 mm 0 mps 675 mmHg 65%
    05:00 +16°C° 0 mm 0 mps 676 mmHg 60%
    06:00 +18°C° 0 mm 0 mps 677 mmHg 55%
    07:00 +20°C° 0 mm 0 mps 677 mmHg 50%
    08:00 +22°C° 0 mm 0 mps 678 mmHg 45%
    09:00 +26°C° 0 mm 1 mps 679 mmHg 40%
    10:00 +27°C° 0 mm 1 mps 679 mmHg 35%
    11:00 +28°C° 0 mm 2 mps 679 mmHg 35%
    12:00 +28°C° 0 mm 2 mps 679 mmHg 35%
    13:00 +29°C° 0 mm 3 mps 680 mmHg 34%
    14:00 +28°C° 0 mm 3 mps 679 mmHg 36%
    15:00 +27°C° 0 mm 2 mps 679 mmHg 39%
    16:00 +26°C° 0 mm 2 mps 679 mmHg 41%
    17:00 +25°C° 0 mm 2 mps 678 mmHg 46%
    18:00 +23°C° 0 mm 1 mps 678 mmHg 51%
    19:00 +22°C° 0 mm 1 mps 678 mmHg 56%
    20:00 +21°C° 0 mm 1 mps 678 mmHg 58%
    21:00 +20°C° 0 mm 1 mps 678 mmHg 59%
    22:00 +19°C° 0 mm 1 mps 678 mmHg 60%
    23:00 +19°C° 0 mm 1 mps 678 mmHg 60%

    21 July, Sunday

    Time Temperature Precipitation Wind Pressure Humidity
    00:00 +19°C° 0 mm 1 mps 678 mmHg 59%
    01:00 +18°C° 0 mm 1 mps 677 mmHg 59%
    02:00 +16°C° 0 mm 0 mps 677 mmHg 59%
    03:00 +16°C° 0 mm 0 mps 677 mmHg 60%
    04:00 +15°C° 0 mm 0 mps 677 mmHg 61%
    05:00 +17°C° 0 mm 0 mps 677 mmHg 56%
    06:00 +19°C° 0 mm 0 mps 678 mmHg 51%
    07:00 +21°C° 0 mm 0 mps 679 mmHg 46%
    08:00 +25°C° 0 mm 1 mps 679 mmHg 41%
    09:00 +27°C° 0 mm 1 mps 680 mmHg 37%
    10:00 +29°C° 0 mm 1 mps 681 mmHg 33%
    11:00 +29°C° 0 mm 2 mps 681 mmHg 32%
    12:00 +30°C° 0 mm 2 mps 681 mmHg 32%
    13:00 +30°C° 0 mm 2 mps 681 mmHg 31%
    14:00 +30°C° 0 mm 2 mps 681 mmHg 32%
    15:00 +29°C° 0 mm 2 mps 680 mmHg 34%
    16:00 +28°C° 0 mm 2 mps 680 mmHg 36%
    17:00 +27°C° 0 mm 2 mps 679 mmHg 41%
    18:00 +25°C° 0 mm 1 mps 679 mmHg 46%
    19:00 +23°C° 0 mm 1 mps 679 mmHg 51%
    20:00 +22°C° 0 mm 1 mps 679 mmHg 51%
    21:00 +21°C° 0 mm 1 mps 679 mmHg 51%
    22:00 +20°C° 0 mm 1 mps 678 mmHg 50%
    23:00 +20°C° 0 mm 1 mps 678 mmHg 49%

    22 July, Monday

    Time Temperature Precipitation Wind Pressure Humidity
    00:00 +19°C° 0 mm 1 mps 678 mmHg 49%
    01:00 +19°C° 0 mm 1 mps 678 mmHg 48%
    02:00 +19°C° 0 mm 1 mps 678 mmHg 48%
    03:00 +17°C° 0 mm 0 mps 677 mmHg 49%
    04:00 +16°C° 0 mm 0 mps 677 mmHg 49%
    05:00 +18°C° 0 mm 0 mps 678 mmHg 46%
    06:00 +20°C° 0 mm 0 mps 678 mmHg 42%
    07:00 +22°C° 0 mm 0 mps 679 mmHg 39%
    08:00 +24°C° 0 mm 0 mps 679 mmHg 36%
    09:00 +28°C° 0 mm 1 mps 680 mmHg 32%
    10:00 +30°C° 0 mm 1 mps 680 mmHg 29%
    11:00 +30°C° 0 mm 2 mps 680 mmHg 29%
    12:00 +30°C° 0 mm 2 mps 680 mmHg 30%
    13:00 +31°C° 0 mm 3 mps 680 mmHg 30%
    14:00 +30°C° 0 mm 3 mps 679 mmHg 33%
    15:00 +29°C° 0 mm 3 mps 679 mmHg 35%
    16:00 +28°C° 0 mm 2 mps 679 mmHg 37%
    17:00 +27°C° 0 mm 2 mps 678 mmHg 43%
    18:00 +25°C° 0 mm 1 mps 678 mmHg 49%
    19:00 +23°C° 0 mm 1 mps 677 mmHg 55%
    20:00 +22°C° 0 mm 1 mps 677 mmHg 56%
    21:00 +21°C° 0 mm 1 mps 677 mmHg 56%
    22:00 +20°C° 0 mm 1 mps 677 mmHg 56%
    23:00 +20°C° 0 mm 1 mps 676 mmHg 56%
    Show more